This is the latest recevied weather packets stored in our database for station/object DG7FDL-13. If no packets are shown the sender has not sent any weather packets the latest 10 day(s).
| Time | Temp. | Humidity | Pressure | Rain* | Wind** | Luminosity | Snow |
|---|---|---|---|---|---|---|---|
| 1778123479 | 9.44° C | 96% | 1010.1 hPa | 0 mm | - | - | - |
| 1778120503 | 9.44° C | 98% | 1010 hPa | 0 mm | - | - | - |
| 1778119879 | 8.89° C | 99% | 1010 hPa | 0 mm | - | - | - |
| 1778117719 | 9.44° C | 99% | 1009.7 hPa | 0 mm | - | - | - |
| 1778114427 | 9.44° C | 97% | 1009.4 hPa | 0 mm | - | - | - |
| 1778109127 | 10.56° C | 93% | 1009 hPa | 0 mm | - | - | - |
| 1778108455 | 10.56° C | 93% | 1008.9 hPa | 0 mm | - | - | - |
| 1778105479 | 10.56° C | 92% | 1008.8 hPa | 0 mm | - | - | - |
| 1778104327 | 10.56° C | 92% | 1008.6 hPa | 0 mm | - | - | - |
| 1778103099 | 10.56° C | 91% | 1008.5 hPa | 0 mm | - | - | - |
| 1778102552 | 10.56° C | 91% | 1008.6 hPa | 0 mm | - | - | - |
| 1778101302 | 11.11° C | 90% | 1008.5 hPa | 0 mm | - | - | - |
| 1778099383 | 11.11° C | 92% | 1008.4 hPa | 0 mm | - | - | - |
| 1778098732 | 11.11° C | 93% | 1008.3 hPa | 0 mm | - | - | - |
| 1778094651 | 11.67° C | 92% | 1007.5 hPa | 0 mm | - | - | - |
| 1778092759 | 12.22° C | 92% | 1006.8 hPa | 0 mm | - | - | - |
| 1778092251 | 12.22° C | 92% | 1006.7 hPa | 0 mm | - | - | - |
| 1778089919 | 13.33° C | 86% | 1006.5 hPa | 0 mm | - | - | - |
| 1778086278 | 14.44° C | 83% | 1005.7 hPa | 0 mm | - | - | - |
| 1778084455 | 16.67° C | 73% | 1005.3 hPa | 0 mm | - | - | - |
| 1778082247 | 17.22° C | 66% | 1005.2 hPa | 0 mm | - | - | - |
| 1778078358 | 18.33° C | 62% | 1005.2 hPa | 0 mm | - | - | - |
| 1778076487 | 17.22° C | 64% | 1005.3 hPa | 0 mm | - | - | - |
| 1778075479 | 17.22° C | 64% | 1005.3 hPa | 0 mm | - | - | - |
| 1778074271 | 17.22° C | 61% | 1005.5 hPa | 0 mm | - | - | - |
* Rain latest hour (hover to see other rain measurements)
** Current wind speed in m/s (hover to see current wind gust speed)